PGT2341 LTFJ-LTBJ

Flight info

Callsign PGT2341
Flight time N/A
Altitude 29000
Route IVGUS1J/06L IVGUS UM19 OVZOK
Aircraft A21N/M-SDE2E3FGHIRWXY/LB1

Departure

Time N/A
Airport Istanbul Sabiha Gökçen International Airport (LTFJ)

Arrival

Time 2026-05-01 15:11
Airport Adnan Menderes International Airport (LTBJ)
Time Latitude Longitude Altitude Speed Heading
2026-05-01 15:01 38.38765 27.23697 9837 ft 288 kts 168°
2026-05-01 15:01 38.36823 27.24282 9508 ft 286 kts 168°
2026-05-01 15:01 38.34910 27.24856 9198 ft 284 kts 168°
2026-05-01 15:02 38.33012 27.25425 9007 ft 275 kts 168°
2026-05-01 15:02 38.32377 27.25616 8989 ft 270 kts 168°
2026-05-01 15:02 38.29378 27.26519 8849 ft 267 kts 168°
2026-05-01 15:02 38.27584 27.27055 8501 ft 267 kts 168°
2026-05-01 15:03 38.25771 27.27594 8149 ft 266 kts 168°
2026-05-01 15:03 38.23976 27.28130 7807 ft 265 kts 168°
2026-05-01 15:03 38.22187 27.28664 7481 ft 264 kts 168°
2026-05-01 15:03 38.20394 27.29200 7154 ft 262 kts 168°
2026-05-01 15:04 38.18630 27.29729 6818 ft 260 kts 168°
2026-05-01 15:04 38.16872 27.30252 6478 ft 259 kts 167°
2026-05-01 15:04 38.15128 27.30772 6128 ft 258 kts 167°
2026-05-01 15:04 38.13367 27.31296 5817 ft 256 kts 167°
2026-05-01 15:05 38.11643 27.31681 5459 ft 254 kts 182°
2026-05-01 15:05 38.09990 27.30992 5076 ft 248 kts 221°
2026-05-01 15:05 38.09069 27.29253 4809 ft 240 kts 259°
2026-05-01 15:05 38.09197 27.27215 4560 ft 228 kts 296°
2026-05-01 15:06 38.09927 27.25485 4342 ft 221 kts 300°
2026-05-01 15:06 38.10625 27.23747 4071 ft 219 kts 297°
2026-05-01 15:06 38.11277 27.22023 3762 ft 217 kts 306°
2026-05-01 15:06 38.12381 27.20806 3486 ft 208 kts 338°
2026-05-01 15:07 38.13728 27.20261 3279 ft 201 kts 349°
2026-05-01 15:07 38.15092 27.19906 3047 ft 197 kts 350°
2026-05-01 15:07 38.16396 27.19564 2974 ft 183 kts 349°
2026-05-01 15:07 38.17555 27.19228 3026 ft 161 kts 349°
2026-05-01 15:08 38.18634 27.18902 2990 ft 155 kts 349°
2026-05-01 15:08 38.19667 27.18587 3002 ft 152 kts 349°
2026-05-01 15:08 38.20693 27.18275 2728 ft 150 kts 349°
2026-05-01 15:08 38.21701 27.17968 2316 ft 148 kts 349°
2026-05-01 15:09 38.22665 27.17674 2018 ft 136 kts 350°
2026-05-01 15:09 38.23553 27.17407 1923 ft 131 kts 351°
2026-05-01 15:09 38.24431 27.17126 1643 ft 129 kts 350°
2026-05-01 15:09 38.25305 27.16847 1213 ft 130 kts 348°
2026-05-01 15:10 38.26159 27.16567 846 ft 125 kts 352°
2026-05-01 15:10 38.27863 27.16097 433 ft 125 kts 351°
2026-05-01 15:10 38.28611 27.15883 402 ft 78 kts 345°
2026-05-01 15:11 38.28908 27.15791 406 ft 30 kts 348°
2026-05-01 15:11 38.29277 27.15681 408 ft 25 kts 347°
2026-05-01 15:11 38.29406 27.15602 409 ft 17 kts 294°
2026-05-01 15:12 38.29386 27.15432 406 ft 22 kts 257°
2026-05-01 15:12 38.29354 27.15132 403 ft 6 kts 291°
2026-05-01 15:12 38.29355 27.15060 404 ft 7 kts 257°
2026-05-01 15:13 38.29353 27.15047 405 ft 0 kts 257°